Miscellaneous Local Product
Issued by NWS Hastings, NE

Home | Current Version | Previous Version | Text Only | Print | Product List | Glossary Off
Versions: 1 2 3 4 5 6 7 8 9 10 11 12 13 14 15 16 17 18 19 20 21 22 23 24 25 26 27 28 29 30 31 32 33 34 35 36 37 38 39 40 41 42 43 44 45 46 47 48 49 50

000
AXUS43 KGID 290102
MISGRI

GID CWA HOURLY WEATHER ROUNDUP
NATIONAL WEATHER SERVICE HASTINGS NE
800 PM CDT WED SEP 28 2016

NOTE: "FAIR" INDICATES FEW OR NO CLOUDS BELOW 12,000 FEET WITH NO
SIGNIFICANT WEATHER AND/OR OBSTRUCTIONS TO VISIBILITY.

...SOUTH CENTRAL NEBRASKA...

CITY           SKY/WX    TMP DP  RH WIND       PRES   REMARKS
GRAND ISLAND   CLEAR     54  43  66 NE8       30.28R
HASTINGS       CLEAR     58  42  55 NE5       30.28R
KEARNEY        CLEAR     57  39  51 NE7       30.27R
ORD            CLEAR     58  41  53 NE7       30.28R
YORK           CLEAR     55  45  67 NE7       30.28R
AURORA         CLEAR     54  44  67 NE6       30.28R
LEXINGTON      CLEAR     56  41  56 E8        30.28R
HOLDREGE       CLEAR     58  43  56 NE8       30.28R
HEBRON         CLEAR     58  43  57 NE5       30.26R

...NEBRASKA PANHANDLE...

CITY           SKY/WX    TMP DP  RH WIND       PRES   REMARKS
CHADRON        CLEAR     69  44  40 NE8       30.26R
ALLIANCE       CLEAR     65  43  44 E9        30.28R
SCOTTSBLUFF    CLEAR     65  46  50 E5        30.28R
SIDNEY         CLEAR     64  37  36 E9        30.32R

...WESTERN AND NORTH CENTRAL NEBRASKA...

CITY           SKY/WX    TMP DP  RH WIND       PRES   REMARKS
VALENTINE      CLEAR     57  35  43 E8        30.31R
AINSWORTH      CLEAR     56  47  72 E6        30.31R
ONEILL         CLEAR     56  43  62 E3        30.32R
BROKEN BOW     CLEAR     58  45  62 NE6       30.29R
IMPERIAL       CLEAR     65  39  38 E9        30.28R
NORTH PLATTE   CLEAR     60  35  39 NE8       30.28R
MCCOOK         CLEAR     63  40  42 E9        30.26R

...EASTERN NEBRASKA...

CITY           SKY/WX    TMP DP  RH WIND       PRES   REMARKS
NORFOLK        CLEAR     57  43  59 NE6       30.29R
SO SIOUX CITY  CLEAR     58  47  66 NE6       30.30R
TEKAMAH        CLEAR     51  46  83 NW8       30.28S
COLUMBUS       CLEAR     54  37  54 NE6       30.29R
ALBION         CLEAR     54  43  67 N5        30.30R
OMAHA EPPLEY   PTCLDY    55  47  74 N6        30.27R
OFFUTT AFB     CLEAR     56  47  71 N6        30.26R
MILLARD        CLEAR     60  47  61 CALM      30.27R
LINCOLN        CLEAR     57  46  66 NE9       30.29R
NEBRASKA CITY  CLEAR     56  42  58 N5        30.26S
BEATRICE       CLEAR     58  45  62 NE6       30.27R
FALLS CITY     CLEAR     57  48  72 NW6       30.23R

...NORTHERN KANSAS...

CITY           SKY/WX    TMP DP  RH WIND       PRES   REMARKS
GOODLAND       CLEAR     63  43  48 E9        30.27R
HILL CITY      CLEAR     58  44  60 NE8       30.26R
NORTON         CLEAR     61  27  27 NE6       30.26
PHILLIPSBURG   CLEAR     63  43  48 NE5       30.26R
SMITH CENTER   CLEAR     57  45  62 NE7       30.27R
HAYS           CLEAR     61  36  39 E9        30.25R
RUSSELL        CLEAR     61  47  59 NE6       30.23R
CONCORDIA      CLEAR     59  45  59 NE3       30.25R
SALINA         CLEAR     66  44  45 NE7       30.24R
TOPEKA         CLEAR     58  49  72 N8        30.22R



USA.gov is the U.S. government's official web portal to all federal, state and local government web resources and services.